Hatteras, NC

4:00 PM EST on November 23, 2017 (GMT -0500)
Mitchell

Weather History for KHSE - October, 2011

Change the Weather History Date:

Wednesday, October 19, 2011

  Actual Average Record
Temperature  
Mean Temperature 73 °F 65 °F  
Max Temperature 77 °F 71 °F 83 °F (1968)
Min Temperature 69 °F 59 °F 39 °F (1978)
Degree Days  
Heating Degree Days 0 3  
Month to date heating degree days 12 28  
Since 1 July heating degree days 12 31  
Cooling Degree Days 8 2  
Month to date cooling degree days 93 77  
Year to date cooling degree days 2359 1669  
Growing Degree Days 24 (Base 50)    
Moisture  
Dew Point 72 °F    
Average Humidity 91    
Maximum Humidity 100    
Minimum Humidity 82    
Precipitation  
Precipitation 4.49 in 0.17 in 4.49 in (2011)
Month to date precipitation 6.53 3.31  
Year to date precipitation 53.68 46.75  
Snow  
Snow 0.00 in - - ()
Month to date snowfall 0.0  
Since 1 July snowfall 0.0  
Snow Depth 0.00 in    
Sea Level Pressure  
Sea Level Pressure 29.49 in    
Wind  
Wind Speed 18 mph (SSW)    
Max Wind Speed 39 mph    
Max Gust Speed 55 mph    
Visibility 2 miles    
Events Rain    
T = Trace of Precipitation, MM = Missing Value Source: NWS Daily Summary

Daily Weather History Graph

Daily Weather History Graph

Search for Another Location

Airport or City:

Trip Planner

Search our weather history database for the weather conditions in past years. The results will help you decide how hot, cold, wet, or windy it might be!

Date:

Astronomy

Oct. 19, 2011 Rise Set
Actual Time 7:11 AM EDT 6:22 PM EDT
Civil Twilight 6:46 AM EDT 6:48 PM EDT
Nautical Twilight 6:16 AM EDT 7:17 PM EDT
Astronomical Twilight 5:47 AM EDT 7:47 PM EDT
Moon No Moon Rise 1:35 PM EDT (10/19)
Length of Visible Light 12h 02m
Length of Day
11h 10m
Waning Gibbous, 55% of the Moon is Illuminated
Oct 19
Waning Gibbous
Oct 19
Last Quarter
Oct 26
New
Nov 2
First Quarter
Nov 10
Full

Hourly Weather History & Observations

Time (EDT) Temp. Dew Point Humidity Pressure Visibility Wind Dir Wind Speed Gust Speed Precip Events Conditions
12:22 AM 73.4 °F 71.6 °F 94% 29.67 in 2.0 mi SE 18.4 mph 24.2 mph 0.09 in Rain Heavy Rain
12:35 AM 73.4 °F 71.6 °F 94% 29.66 in 5.0 mi SSE 19.6 mph 27.6 mph 0.12 in Rain Light Rain
12:41 AM 73.4 °F 71.6 °F 94% 29.66 in 5.0 mi SSE 16.1 mph 27.6 mph 0.13 in Rain Light Rain
12:51 AM 73.9 °F 72.0 °F 93% 29.65 in 6.0 mi South 19.6 mph 28.8 mph 0.14 in Rain Light Rain
12:59 AM 73.4 °F 71.6 °F 94% 29.64 in 7.0 mi South 19.6 mph 26.5 mph 0.00 in Rain Light Rain
1:47 AM 73.4 °F 71.6 °F 94% 29.62 in 1.8 mi South 20.7 mph 35.7 mph 0.06 in Rain Heavy Rain
1:51 AM 73.9 °F 71.1 °F 91% 29.61 in 1.8 mi South 19.6 mph 34.5 mph 0.10 in Rain Light Rain
1:55 AM 73.4 °F 71.6 °F 94% 29.61 in 3.0 mi SSW 18.4 mph 28.8 mph 0.00 in Rain Light Rain
2:51 AM 73.9 °F 70.0 °F 87% 29.60 in 8.0 mi SSW 20.7 mph 36.8 mph 0.01 in Rain Light Rain
3:51 AM 73.9 °F 72.0 °F 93% 29.57 in 2.5 mi SSW 16.1 mph 26.5 mph 0.13 in Rain Rain
4:01 AM 73.4 °F 71.6 °F 94% 29.58 in 3.0 mi SSW 23.0 mph 28.8 mph 0.02 in Rain Light Rain
4:04 AM 73.4 °F 71.6 °F 94% 29.58 in 2.0 mi SSW 27.6 mph 38.0 mph 0.05 in Rain Heavy Rain
4:09 AM 73.4 °F 71.6 °F 94% 29.58 in 1.2 mi SSW 23.0 mph 41.4 mph 0.13 in Rain Heavy Rain
4:13 AM 73.4 °F 71.6 °F 94% 29.57 in 1.5 mi SSW 23.0 mph 41.4 mph 0.15 in Rain Rain
4:22 AM 73.4 °F 71.6 °F 94% 29.57 in 2.5 mi SSW 24.2 mph 35.7 mph 0.17 in Rain Rain
4:27 AM 73.4 °F 71.6 °F 94% 29.57 in 1.8 mi SW 19.6 mph 35.7 mph 0.20 in Rain Heavy Rain
4:39 AM 71.6 °F 69.8 °F 94% 29.58 in 3.0 mi SW 20.7 mph 29.9 mph 0.29 in Rain Light Rain
4:51 AM 72.0 °F 70.0 °F 93% 29.57 in 2.5 mi SSW 17.3 mph 27.6 mph 0.32 in Rain Rain
5:11 AM 71.6 °F 69.8 °F 94% 29.56 in 1.5 mi WSW 11.5 mph 24.2 mph 0.17 in Rain Heavy Rain
5:23 AM 71.6 °F 69.8 °F 94% 29.56 in 2.5 mi WSW 11.5 mph 18.4 mph 0.24 in Rain Heavy Rain
5:49 AM 71.6 °F 69.8 °F 94% 29.56 in 1.5 mi WSW 12.7 mph - 0.43 in Rain Heavy Rain
5:51 AM 72.0 °F 70.0 °F 93% 29.56 in 1.8 mi WSW 12.7 mph - 0.45 in Rain Heavy Rain
5:58 AM 71.6 °F 69.8 °F 94% 29.56 in 3.0 mi WSW 11.5 mph - 0.03 in Rain Rain
6:15 AM 71.6 °F 69.8 °F 94% 29.56 in 2.0 mi WSW 12.7 mph 24.2 mph 0.10 in Rain Heavy Rain
6:46 AM 71.6 °F 69.8 °F 94% 29.56 in 4.0 mi SW 10.4 mph 19.6 mph 0.24 in Rain Light Rain
6:51 AM 72.0 °F 70.0 °F 93% 29.56 in 4.0 mi SW 12.7 mph 21.9 mph 0.24 in Rain Light Rain
7:51 AM 72.0 °F 70.0 °F 93% 29.55 in 3.0 mi SSW 16.1 mph 21.9 mph 0.16 in Rain Heavy Rain
8:23 AM 71.6 °F 69.8 °F 94% 29.55 in 2.5 mi SW 9.2 mph - 0.12 in Rain Rain
8:47 AM 71.6 °F 71.6 °F 100% 29.57 in 1.8 mi SSW 11.5 mph - 0.21 in Rain Rain
8:51 AM 72.0 °F 71.1 °F 97% 29.57 in 1.5 mi SSW 10.4 mph - 0.23 in Rain Heavy Rain
8:59 AM 71.6 °F 71.6 °F 100% 29.57 in 1.0 mi SSW 10.4 mph 17.3 mph 0.07 in Rain Heavy Rain
9:23 AM 71.6 °F 69.8 °F 94% 29.57 in 0.8 mi SSW 9.2 mph - 0.27 in Rain Heavy Rain
9:35 AM 71.6 °F 71.6 °F 100% 29.55 in 1.0 mi SSW 5.8 mph - 0.43 in Rain Heavy Rain
9:51 AM 72.0 °F 70.0 °F 93% 29.54 in 0.8 mi Calm Calm - 0.54 in Rain Heavy Rain
10:16 AM 71.6 °F 69.8 °F 94% 29.53 in 1.5 mi SSE 3.5 mph - 0.25 in Rain Rain
10:26 AM 71.6 °F 69.8 °F 94% 29.51 in 1.0 mi Calm Calm - 0.37 in Rain Heavy Rain
10:51 AM 71.1 °F 70.0 °F 96% 29.52 in 1.8 mi Calm Calm - 0.58 in Rain Rain
11:02 AM 71.6 °F 69.8 °F 94% 29.51 in 1.2 mi SSE 9.2 mph 16.1 mph 0.05 in Rain Heavy Rain
11:10 AM 71.6 °F 69.8 °F 94% 29.51 in 0.8 mi Variable 5.8 mph - 0.16 in Rain Heavy Rain
11:16 AM 71.6 °F 69.8 °F 94% 29.50 in 1.5 mi ESE 4.6 mph - 0.20 in Rain Light Rain
11:24 AM 71.6 °F 71.6 °F 100% 29.49 in 2.5 mi SE 6.9 mph - 0.21 in Rain Light Rain
11:39 AM 73.4 °F 71.6 °F 94% 29.49 in 3.0 mi SSE 9.2 mph - 0.21 in Rain Light Rain
11:48 AM 75.2 °F 73.4 °F 94% 29.48 in 3.0 mi South 19.6 mph 25.3 mph 0.21 in Rain Light Rain
11:51 AM 75.9 °F 73.0 °F 91% 29.47 in 3.0 mi South 23.0 mph 28.8 mph 0.21 in Rain Light Rain
12:11 PM 77.0 °F 73.4 °F 89% 29.47 in 2.0 mi SSW 28.8 mph 39.1 mph 0.02 in Rain Rain
12:15 PM 77.0 °F 73.4 °F 89% 29.44 in 1.8 mi South 32.2 mph 40.3 mph 0.02 in Rain Rain
12:26 PM 77.0 °F 73.4 °F 89% 29.43 in 1.0 mi South 35.7 mph 49.5 mph 0.07 in Rain Heavy Rain
12:40 PM 77.0 °F 73.4 °F 89% 29.47 in 1.8 mi South 29.9 mph 44.9 mph 0.09 in Rain Rain
12:44 PM 75.2 °F 73.4 °F 94% 29.48 in 0.8 mi SSW 23.0 mph 43.7 mph N/A Rain Heavy Rain
12:51 PM 75.9 °F 73.9 °F 94% 29.47 in 0.8 mi SSW 16.1 mph 40.3 mph 0.19 in Rain Rain
12:59 PM 75.2 °F 73.4 °F 94% 29.46 in 1.0 mi SSW 15.0 mph 24.2 mph 0.04 in Rain Heavy Rain
1:04 PM 75.2 °F 73.4 °F 94% 29.45 in 0.8 mi South 13.8 mph 21.9 mph 0.12 in Rain Heavy Rain
1:13 PM 75.2 °F 73.4 °F 94% 29.44 in 1.5 mi South 24.2 mph 29.9 mph 0.15 in Rain Rain
1:51 PM 75.9 °F 73.9 °F 94% 29.42 in 1.2 mi South 26.5 mph 34.5 mph 0.34 in Rain Heavy Rain
2:10 PM 75.2 °F 73.4 °F 94% 29.41 in 0.8 mi South 32.2 mph 42.6 mph 0.10 in Rain Heavy Rain
2:21 PM 75.2 °F 73.4 °F 94% 29.40 in 0.8 mi South 28.8 mph 43.7 mph 0.18 in Rain Rain
2:26 PM 75.2 °F 73.4 °F 94% 29.39 in 1.0 mi South 29.9 mph 43.7 mph 0.21 in Rain Rain
2:51 PM 75.9 °F 73.9 °F 94% 29.40 in 2.0 mi South 26.5 mph 42.6 mph 0.29 in Rain Light Rain
3:02 PM 77.0 °F 73.4 °F 89% 29.40 in 3.0 mi South 24.2 mph 38.0 mph 0.00 in Rain Light Rain
3:09 PM 75.2 °F 73.4 °F 94% 29.39 in 1.8 mi South 29.9 mph 40.3 mph 0.01 in Rain Light Rain
3:21 PM 75.2 °F 73.4 °F 94% 29.39 in 2.0 mi South 28.8 mph 39.1 mph 0.03 in Rain Light Rain
3:33 PM 77.0 °F 73.4 °F 89% 29.38 in 1.8 mi South 32.2 mph 42.6 mph 0.04 in Rain Rain
3:38 PM 75.2 °F 73.4 °F 94% 29.39 in 0.8 mi South 27.6 mph 42.6 mph 0.07 in Rain Heavy Rain
3:40 PM 75.2 °F 73.4 °F 94% 29.38 in 0.8 mi South 25.3 mph 42.6 mph 0.09 in Rain Heavy Rain
3:51 PM 75.9 °F 73.9 °F 94% 29.39 in 0.8 mi South 25.3 mph 46.0 mph 0.15 in Rain Rain
4:01 PM 75.2 °F 73.4 °F 94% 29.39 in 1.0 mi South 23.0 mph 40.3 mph 0.07 in Rain Rain
4:04 PM 75.2 °F 73.4 °F 94% 29.38 in 1.0 mi South 19.6 mph 32.2 mph 0.09 in Rain Heavy Rain
4:13 PM 75.2 °F 75.2 °F 100% 29.38 in 0.8 mi SSW 34.5 mph 54.1 mph 0.18 in Rain Heavy Rain
4:20 PM 75.2 °F 73.4 °F 94% 29.38 in 1.2 mi SW 21.9 mph 54.1 mph 0.20 in Rain Rain
4:23 PM 75.2 °F 73.4 °F 94% 29.38 in 1.5 mi SW 20.7 mph 36.8 mph 0.21 in Rain Rain
4:30 PM 75.2 °F 73.4 °F 94% 29.39 in 2.0 mi SSW 23.0 mph 34.5 mph 0.22 in Rain Light Rain
4:51 PM 75.0 °F 73.9 °F 96% 29.39 in 3.0 mi SSW 26.5 mph 36.8 mph 0.22 in   Overcast
5:00 PM 75.2 °F 73.4 °F 94% 29.39 in 3.0 mi SSW 20.7 mph 32.2 mph 0.01 in   Mostly Cloudy
5:12 PM 75.2 °F 73.4 °F 94% 29.40 in 3.0 mi SSW 19.6 mph 28.8 mph 0.01 in   Scattered Clouds
5:28 PM 75.2 °F 73.4 °F 94% 29.40 in 2.5 mi SSW 17.3 mph 26.5 mph 0.01 in   Mostly Cloudy
5:39 PM 75.2 °F 73.4 °F 94% 29.41 in 3.0 mi SSW 13.8 mph 25.3 mph 0.01 in   Scattered Clouds
5:51 PM 75.0 °F 73.0 °F 94% 29.40 in 3.0 mi SSW 15.0 mph 24.2 mph 0.01 in   Scattered Clouds
6:51 PM 75.0 °F 73.0 °F 94% 29.44 in 4.0 mi SSW 16.1 mph 24.2 mph N/A   Mostly Cloudy
7:02 PM 75.2 °F 73.4 °F 94% 29.43 in 5.0 mi SSW 15.0 mph 23.0 mph N/A   Mostly Cloudy
7:51 PM 75.9 °F 73.9 °F 94% 29.44 in 5.0 mi SSW 16.1 mph 23.0 mph N/A   Partly Cloudy
8:51 PM 75.0 °F 71.1 °F 87% 29.46 in 6.0 mi SW 19.6 mph 29.9 mph N/A   Clear
9:51 PM 75.0 °F 70.0 °F 84% 29.46 in 7.0 mi SSW 20.7 mph 29.9 mph N/A   Clear
10:51 PM 75.9 °F 69.1 °F 79% 29.47 in 7.0 mi SW 17.3 mph 29.9 mph N/A   Overcast
11:10 PM 71.6 °F 68.0 °F 88% 29.49 in 1.8 mi WSW 26.5 mph 33.4 mph 0.00 in Rain Heavy Rain
11:12 PM 71.6 °F 68.0 °F 88% 29.49 in 1.2 mi WSW 21.9 mph 33.4 mph 0.04 in Rain Heavy Rain
11:16 PM 71.6 °F 69.8 °F 94% 29.49 in 0.8 mi SW 26.5 mph 35.7 mph 0.18 in Rain Heavy Rain
11:25 PM 71.6 °F 69.8 °F 94% 29.49 in 1.5 mi SW 18.4 mph 35.7 mph 0.30 in Rain Rain
11:30 PM 71.6 °F 69.8 °F 94% 29.49 in 3.0 mi SW 18.4 mph 31.1 mph 0.31 in Rain Light Rain
11:51 PM 71.1 °F 70.0 °F 96% 29.48 in 3.0 mi SW 17.3 mph 29.9 mph 0.32 in Rain Rain